Location: Boda
(47.1872°N, 9.5454°E)
Time: 09:47:36
(UTC+00:00)

IRS-1D - Pass Details

Date: 14 May 2021
Orbit: 741 x 816 km, 98.6° (Epoch: 17 June)

Event Time Altitude Azimuth Distance (km) Brightness Sun altitude
Rises 02:27:23 0° 9° (N) 3,345 7.8 -11.7°
Reaches altitude 10° 02:29:47 10° 4° (N) 2,414 6.8 -11.4°
Maximum altitude 02:34:55 49° 292° (WNW) 1,053 4.1 -10.7°
Enters shadow 02:39:29 13° 220° (SW) 2,203 5.2 -10.2°
